Location: PSU-Greenbush Astrophysical Observatory
(37.5140°N, 94.9880°W)
Time: 03:52:48
(UTC-05:00)

BEESAT - Pass Details

Date: 26 February 2020
Orbit: 700 x 709 km, 98.6° (Epoch: 07 April)

Event Time Altitude Azimuth Distance (km) Brightness Sun altitude
Rises 19:33:24 0° 350° (N) 3,093 ? -17.2°
Reaches altitude 10° 19:36:52 10° 324° (NW) 2,169 ? -17.9°
Maximum altitude 19:38:56 13° 297° (WNW) 1,976 ? -18.3°
Drops below altitude 10° 19:41:01 10° 271° (W) 2,163 ? -18.7°
Sets 19:44:29 0° 244° (WSW) 3,077 ? -19.4°
